Wind_Speed
15 14 13 12 10 8 5 5 6 7 9 9 8 8 7 6 5 6 7 6 6 7 7 7 7 8 8 8 9 9 10 10 10 10 10 10 10 10 10 10 10 10 9 8 8 8 7 7 7
17 16 15 13 11 8 5 8 10 10 11 9 9 8 8 7 6 7 8 8 8 8 8 8 9 9 9 9 10 10 11 11 11 12 12 12 12 12 12 11 11 11 10 10 10 10 9 9 9
18 17 16 14 11 9 9 12 13 12 12 11 10 9 9 8 8 8 9 9 9 9 10 10 10 10 10 10 11 11 11 12 12 13 13 13 13 13 13 12 12 12 12 11 11 11 11 11 10
19 18 16 14 11 10 11 14 15 14 13 11 11 11 11 9 10 10 10 10 10 11 11 11 11 11 12 12 12 12 13 13 13 13 14 14 14 14 13 13 13 13 13 13 13 12 12 12 12
19 18 16 14 11 12 15 15 14 15 14 13 13 13 12 11 11 12 12 11 11 12 12 12 12 12 13 13 14 14 14 14 14 14 14 15 15 15 15 14 14 14 14 14 14 14 14 14 13
19 17 15 13 13 15 17 17 15 14 14 15 14 14 13 12 12 12 12 12 12 12 13 13 13 13 13 15 15 16 15 15 15 16 16 16 16 16 16 15 16 16 15 15 15 15 15 15 15
19 17 15 13 15 17 19 19 17 16 15 16 16 15 12 11 13 14 13 13 13 13 13 13 13 14 14 15 16 17 17 16 16 16 17 17 17 17 17 17 17 17 16 17 17 17 17 17 17
20 19 16 16 17 18 20 19 18 18 17 17 17 16 14 13 14 15 15 14 14 14 14 14 14 15 16 16 16 17 17 17 17 18 18 18 18 18 18 18 18 18 18 18 18 19 19 19 19
20 19 16 16 16 18 20 19 18 18 18 18 17 17 15 15 15 16 16 16 16 15 15 15 15 16 16 17 18 19 18 18 19 19 19 18 18 19 19 19 19 19 19 19 19 20 20 20 20
20 18 14 18 19 18 20 18 18 17 18 19 18 17 16 15 16 16 17 17 17 16 16 17 16 17 17 18 19 19 19 19 20 20 20 20 20 20 20 20 21 21 20 21 21 21 21 21 21
20 17 18 21 21 22 20 19 18 18 18 19 19 18 16 15 16 17 18 17 17 17 18 18 18 19 19 19 19 20 20 20 21 21 22 21 21 21 21 21 22 22 22 22 22 22 22 22 22
20 19 19 20 24 23 18 16 16 18 18 18 18 18 17 16 17 18 18 18 18 19 19 19 19 21 21 21 20 21 22 22 22 22 23 22 22 22 22 23 23 23 23 23 23 23 23 23 24
18 19 19 21 19 18 18 14 15 18 18 19 19 19 18 18 19 19 19 19 19 19 19 20 21 22 22 22 22 21 22 22 22 22 23 24 23 23 24 24 24 25 25 25 24 24 24 24 25
16 17 18 18 17 18 18 15 17 19 19 19 19 19 20 20 20 20 21 20 21 21 21 21 22 23 23 23 24 23 23 24 24 24 25 25 24 25 25 25 26 25 25 25 25 25 24 24 24
17 16 17 16 18 18 16 16 18 20 19 19 21 20 20 20 20 22 22 21 22 22 22 23 23 23 23 23 25 25 24 25 25 26 26 26 26 26 26 26 26 26 25 25 25 25 26 25 25
14 15 15 15 16 16 15 17 20 20 21 21 22 22 22 22 21 20 21 21 21 21 21 22 22 22 23 24 26 27 26 26 26 26 27 27 27 27 26 26 26 27 26 26 26 27 26 26 26
13 14 14 15 16 14 15 18 20 22 21 20 22 23 21 21 22 21 20 20 20 20 21 21 22 23 23 25 26 27 27 28 28 28 28 28 28 27 26 26 27 26 26 27 27 27 27 27 26
11 13 15 15 16 14 15 18 20 22 21 21 23 22 22 22 22 22 21 21 21 21 21 21 22 23 24 26 27 28 28 29 29 29 29 28 27 27 27 27 27 27 27 27 27 27 27 27 27
13 15 14 15 16 15 16 18 20 19 22 23 23 22 22 22 22 22 21 21 21 21 21 22 23 25 26 27 28 29 30 30 30 31 30 29 28 28 29 29 29 28 28 28 27 27 28 28 28
11 13 13 13 15 16 17 18 19 20 22 23 23 22 22 23 22 23 23 23 24 23 24 24 25 26 27 28 29 29 30 30 30 30 29 29 29 29 29 29 28 28 28 28 27 28 28 28 28
11 12 11 14 16 17 17 18 21 23 23 23 24 23 22 23 24 24 24 24 24 24 24 25 26 27 28 28 29 30 30 31 30 30 29 28 28 29 29 28 28 28 28 28 29 29 28 28 27
11 13 13 15 16 16 18 20 20 23 23 22 24 24 23 22 25 25 24 25 24 25 25 26 26 27 28 29 30 30 31 30 29 29 29 28 28 28 29 29 28 28 28 28 28 28 28 28 27
13 13 15 14 15 17 18 21 21 22 22 22 22 24 24 23 25 23 24 24 24 24 25 26 27 28 29 30 29 29 30 30 29 28 29 29 29 29 29 29 29 28 28 27 27 28 28 28 27
14 13 12 12 15 19 18 20 22 22 22 22 23 22 22 23 24 23 23 23 24 24 25 26 27 28 29 28 28 29 29 28 29 29 29 30 29 29 29 29 28 27 27 27 27 26 26 26 26
12 10 11 13 15 18 18 19 22 22 22 23 23 22 23 23 23 23 23 23 23 24 25 26 27 28 28 28 28 29 29 29 29 29 29 29 28 28 28 27 27 26 26 26 26 26 26 25 25
11 10 13 16 16 16 17 18 19 21 22 23 24 23 23 24 22 22 21 22 23 24 25 26 27 28 27 28 28 29 29 29 29 28 27 26 26 26 26 25 25 25 25 26 26 26 27 26 26
9 10 13 17 17 17 17 21 21 19 20 21 22 22 22 22 22 21 22 22 23 24 25 26 27 28 27 27 28 28 28 27 27 26 26 25 25 25 25 25 24 24 24 25 25 26 26 26 26
11 13 14 16 17 18 18 18 21 19 19 20 21 20 20 21 21 21 22 23 23 24 25 25 26 27 27 27 27 26 26 26 26 25 25 25 25 24 24 24 24 24 24 24 25 25 25 25 25
13 15 16 17 18 18 20 20 18 18 18 19 21 20 20 21 22 21 22 22 23 23 24 24 25 25 26 26 26 26 26 25 25 25 25 25 24 24 24 24 24 23 23 24 24 24 24 24 23
15 16 17 17 18 18 20 23 21 19 18 19 20 21 22 22 22 22 22 22 22 23 23 23 24 24 25 25 24 24 25 25 25 25 25 24 24 23 24 24 24 24 24 24 24 23 23 23 23
Wind_Direction
205 201 198 195 189 185 175 181 225 236 235 239 242 246 255 266 266 272 287 298 301 301 303 300 301 303 302 300 298 298 297 295 292 288 287 287 288 288 290 288 286 283 281 280 279 279 279 279 279
207 203 201 198 195 195 185 217 233 239 240 242 246 250 259 270 273 273 283 290 294 294 296 297 299 300 299 296 297 297 295 293 292 289 287 288 289 289 288 287 287 285 281 280 279 279 277 275 274
207 205 203 199 200 204 200 231 238 242 247 245 247 252 264 271 277 283 287 288 291 292 294 294 294 295 296 295 294 294 293 292 290 288 286 287 288 288 288 287 285 284 281 280 279 278 276 273 272
207 205 203 203 203 213 217 230 238 244 247 248 253 257 267 273 278 283 286 287 290 293 294 293 293 294 293 292 290 290 290 290 290 288 286 286 286 287 288 287 286 285 282 281 280 278 275 272 271
207 204 201 204 208 217 225 228 235 241 247 252 259 262 263 271 278 282 283 287 289 292 292 291 292 294 294 293 292 291 290 289 289 289 289 289 288 287 288 287 286 285 282 281 280 278 277 274 272
205 202 201 206 219 224 241 239 232 238 247 255 257 258 260 268 279 282 284 287 291 293 293 292 292 294 295 295 293 291 290 289 289 290 291 290 288 288 288 286 286 284 283 283 282 279 279 277 275
203 196 203 213 222 231 241 245 239 240 246 252 262 264 266 274 281 284 286 288 292 294 294 293 292 294 296 297 298 296 291 289 289 289 290 290 289 289 288 286 285 284 283 283 282 280 279 279 277
204 197 205 215 225 231 243 241 237 242 249 252 257 265 270 278 280 283 285 288 292 294 294 294 292 293 293 294 297 299 293 289 289 289 287 287 287 288 288 286 284 283 283 284 283 279 278 278 277
202 199 206 219 226 231 239 243 241 243 247 252 259 263 268 276 279 284 287 288 292 293 293 295 293 293 293 295 296 297 293 291 290 289 286 284 285 286 287 285 284 283 282 283 283 279 277 277 276
201 199 214 223 223 230 234 236 244 243 249 255 256 261 266 274 280 283 285 288 291 293 293 293 293 293 295 297 297 299 296 294 292 291 289 285 284 285 287 286 283 282 281 281 281 279 276 275 275
201 205 215 222 220 226 232 237 238 242 247 253 261 265 270 278 283 286 287 289 291 292 293 293 292 294 297 299 300 300 300 296 292 290 290 286 285 287 287 287 284 282 282 282 282 279 277 274 274
204 212 215 222 226 226 232 236 239 245 249 255 263 265 273 283 287 289 291 292 291 291 291 293 294 296 298 299 300 301 300 297 294 290 290 287 287 289 289 289 287 285 285 284 282 279 278 275 274
214 221 222 226 230 227 237 237 242 245 250 259 265 273 283 282 283 286 289 291 291 292 292 293 294 296 297 297 298 300 300 301 297 292 292 293 292 291 291 289 288 287 287 284 282 281 278 275 274
218 226 229 233 236 241 242 241 248 254 256 259 265 271 277 278 280 284 286 287 290 292 291 292 293 294 294 297 299 297 298 298 297 294 293 294 292 290 293 293 291 289 288 285 281 280 280 278 276
217 226 232 239 238 241 244 243 247 252 256 260 268 271 275 280 281 283 285 287 288 290 290 291 292 292 294 296 297 296 297 297 297 295 293 292 291 290 291 293 292 289 287 285 282 279 279 278 277
219 230 237 245 245 241 244 248 251 248 257 264 270 274 275 276 280 284 287 288 288 290 292 294 293 292 294 296 297 297 298 297 296 297 295 291 290 291 291 292 290 288 286 284 282 280 279 278 277
228 236 238 249 250 244 247 253 257 256 258 266 271 277 276 277 283 284 287 289 291 292 294 295 295 294 296 298 299 300 301 300 299 299 295 291 290 290 290 290 288 287 285 284 283 281 280 279 277
229 233 232 242 249 245 253 258 260 263 266 270 272 273 278 281 283 284 288 289 293 296 297 296 295 295 297 299 300 301 302 302 301 300 297 294 292 292 291 290 288 287 285 283 282 281 280 280 278
237 237 233 234 246 252 255 259 260 262 266 272 281 284 282 282 283 288 289 291 293 295 297 298 297 297 298 300 301 302 303 302 301 301 299 298 294 291 290 289 287 287 285 283 282 281 281 282 280
236 241 239 244 246 250 254 262 262 264 267 275 279 284 284 285 287 291 290 290 292 294 295 296 297 298 299 300 301 302 304 303 302 302 300 297 294 292 291 289 287 286 285 282 281 281 282 283 282
243 247 241 247 251 258 265 266 267 269 271 274 277 280 282 286 288 289 287 288 291 293 294 295 296 298 300 301 302 302 302 301 301 301 299 296 294 293 292 291 288 287 286 284 282 281 283 284 285
247 248 248 252 255 260 265 271 270 274 271 275 277 280 285 285 286 286 286 288 291 292 293 296 298 300 301 302 302 302 301 302 301 299 299 297 295 293 292 291 289 288 287 286 283 282 284 284 285
246 251 252 253 258 260 262 266 273 277 277 277 278 281 284 285 285 284 284 286 289 291 293 297 299 301 303 302 302 302 302 302 302 300 299 297 295 293 292 289 287 286 287 286 283 283 283 284 285
253 253 256 260 263 265 269 268 270 273 277 279 281 282 284 286 285 284 283 285 287 291 293 296 298 301 303 303 303 303 303 303 304 301 300 298 295 293 292 291 290 288 287 286 285 284 283 283 284
252 255 263 263 261 267 272 265 265 275 280 282 284 285 287 287 285 282 281 284 287 291 294 296 299 302 303 304 304 303 303 304 305 303 301 300 297 295 294 291 291 291 289 287 285 283 283 284 284
250 244 257 264 268 271 279 276 273 278 280 283 287 288 288 291 289 283 282 285 288 290 293 296 300 302 303 303 303 303 302 304 304 303 303 302 302 300 298 295 291 291 290 289 287 285 284 284 283
258 250 259 269 269 268 266 271 270 273 276 286 289 289 291 294 293 289 289 288 288 291 294 297 300 301 302 303 304 305 305 305 305 304 304 305 304 303 301 297 295 294 291 289 287 287 285 283 283
262 261 264 269 273 275 273 275 276 280 283 289 292 291 293 294 292 290 292 291 290 292 295 298 301 301 302 302 304 306 307 308 309 307 307 305 304 303 302 300 298 297 295 292 289 289 286 285 285
271 267 268 272 274 278 284 281 280 277 283 286 289 295 296 294 292 293 294 294 294 294 297 300 303 303 303 304 305 307 309 309 309 308 308 307 305 303 301 300 298 297 295 292 291 289 287 286 286
268 270 269 273 276 277 280 283 284 283 282 286 288 292 294 292 292 292 293 294 296 298 300 302 304 305 305 306 307 309 309 310 310 308 307 306 306 304 303 302 299 299 297 294 292 290 288 286 284
Height
5891 5893 5895 5897 5900 5901 5902 5905 5906 5905 5904 5905 5905 5904 5903 5904 5904 5907 5904 5902 5903 5902 5902 5901 5901 5901 5900 5900 5899 5899 5898 5898 5897 5897 5896 5895 5895 5894 5893 5893 5892 5892 5891 5891 5890 5890 5889 5889 5888
5889 5891 5894 5896 5898 5900 5903 5904 5905 5905 5903 5904 5904 5904 5903 5903 5903 5903 5902 5902 5902 5901 5901 5900 5900 5899 5899 5899 5898 5898 5897 5896 5896 5895 5894 5894 5893 5892 5891 5891 5890 5890 5889 5889 5889 5888 5888 5887 5887
5886 5889 5892 5894 5897 5899 5902 5904 5903 5903 5902 5902 5902 5903 5902 5901 5902 5902 5901 5901 5901 5900 5900 5899 5898 5898 5898 5897 5897 5896 5895 5895 5894 5893 5893 5892 5891 5890 5889 5889 5888 5888 5887 5887 5886 5886 5886 5885 5885
5883 5887 5891 5894 5896 5898 5899 5901 5900 5901 5900 5900 5901 5901 5900 5900 5901 5901 5900 5900 5899 5899 5898 5898 5897 5897 5896 5895 5895 5894 5893 5893 5892 5891 5890 5889 5888 5888 5887 5886 5886 5885 5885 5884 5884 5883 5883 5883 5882
5881 5885 5889 5892 5895 5897 5897 5897 5897 5898 5898 5899 5899 5899 5899 5899 5899 5899 5899 5898 5898 5898 5897 5896 5895 5895 5894 5893 5892 5891 5891 5890 5889 5888 5888 5887 5886 5885 5885 5884 5883 5883 5882 5882 5881 5881 5881 5880 5880
5880 5883 5887 5890 5894 5895 5896 5895 5895 5895 5897 5897 5896 5895 5895 5897 5898 5897 5897 5896 5896 5896 5895 5894 5893 5893 5892 5891 5890 5889 5888 5887 5887 5886 5885 5884 5883 5883 5882 5881 5880 5880 5879 5879 5878 5878 5877 5877 5877
5877 5881 5885 5889 5892 5894 5894 5893 5893 5894 5895 5895 5895 5893 5892 5895 5896 5895 5895 5894 5894 5894 5893 5892 5891 5890 5889 5888 5887 5886 5885 5885 5884 5883 5882 5881 5880 5880 5879 5878 5877 5877 5876 5875 5875 5874 5874 5874 5873
5874 5879 5883 5887 5889 5891 5891 5891 5890 5892 5892 5893 5892 5892 5891 5893 5893 5893 5893 5892 5892 5892 5890 5890 5889 5888 5887 5886 5885 5884 5883 5882 5881 5880 5879 5878 5877 5876 5876 5875 5874 5873 5872 5872 5871 5871 5870 5870 5869
5873 5878 5881 5885 5886 5886 5888 5887 5889 5890 5890 5890 5890 5889 5889 5890 5891 5891 5891 5890 5890 5889 5888 5887 5886 5885 5884 5883 5882 5881 5880 5879 5878 5876 5875 5874 5874 5873 5872 5871 5870 5869 5868 5868 5867 5867 5866 5865 5865
5871 5875 5880 5882 5883 5883 5884 5885 5886 5887 5887 5887 5887 5887 5888 5888 5889 5889 5888 5888 5887 5886 5885 5884 5883 5882 5881 5880 5879 5878 5876 5875 5874 5873 5872 5871 5870 5869 5868 5867 5866 5865 5864 5863 5863 5862 5861 5861 5861
5870 5873 5876 5876 5878 5879 5880 5881 5884 5885 5885 5885 5885 5885 5886 5886 5886 5886 5886 5885 5883 5883 5882 5881 5880 5879 5878 5877 5876 5875 5873 5872 5870 5869 5868 5867 5866 5865 5864 5862 5861 5860 5859 5858 5858 5857 5856 5856 5856
5868 5870 5871 5873 5873 5875 5876 5877 5880 5881 5882 5882 5881 5880 5883 5883 5883 5883 5883 5882 5881 5880 5879 5877 5876 5875 5874 5873 5872 5871 5869 5868 5866 5865 5864 5862 5861 5860 5859 5858 5856 5855 5854 5853 5852 5852 5851 5850 5850
5866 5867 5868 5870 5872 5872 5874 5875 5878 5878 5879 5879 5879 5878 5879 5881 5881 5880 5879 5878 5877 5876 5875 5874 5873 5872 5871 5869 5868 5867 5865 5864 5862 5861 5859 5858 5856 5855 5854 5853 5851 5850 5849 5847 5846 5846 5845 5844 5844
5863 5865 5867 5868 5871 5872 5872 5873 5876 5875 5876 5877 5876 5877 5877 5878 5878 5877 5876 5875 5874 5873 5872 5871 5870 5868 5867 5865 5864 5862 5861 5859 5858 5856 5855 5853 5851 5850 5848 5847 5845 5844 5842 5841 5840 5840 5839 5839 5838
5862 5864 5866 5867 5869 5870 5871 5872 5872 5873 5873 5873 5873 5874 5874 5874 5874 5873 5872 5871 5871 5870 5868 5867 5866 5865 5863 5862 5860 5858 5857 5855 5853 5851 5849 5847 5845 5844 5843 5841 5840 5838 5836 5835 5834 5833 5833 5833 5832
5860 5863 5864 5865 5866 5867 5870 5870 5869 5870 5870 5870 5870 5870 5871 5871 5870 5869 5868 5868 5867 5865 5864 5863 5862 5860 5859 5857 5856 5854 5852 5850 5848 5846 5844 5842 5840 5839 5837 5836 5834 5831 5830 5829 5828 5827 5827 5826 5826
5859 5862 5864 5864 5863 5865 5866 5867 5867 5867 5865 5866 5867 5866 5865 5866 5866 5865 5864 5864 5862 5861 5860 5859 5857 5856 5854 5853 5851 5849 5847 5845 5842 5840 5838 5836 5835 5833 5831 5830 5828 5826 5824 5823 5822 5821 5820 5820 5819
5859 5860 5862 5864 5862 5862 5864 5865 5864 5864 5863 5863 5863 5863 5862 5862 5862 5861 5861 5860 5858 5857 5856 5855 5853 5852 5850 5848 5846 5844 5842 5840 5837 5834 5832 5830 5829 5827 5825 5824 5822 5820 5818 5817 5816 5814 5813 5813 5812
5857 5859 5859 5862 5861 5861 5861 5862 5861 5860 5861 5861 5859 5859 5858 5858 5858 5857 5856 5856 5854 5853 5852 5850 5849 5848 5846 5844 5842 5839 5837 5834 5832 5829 5827 5824 5823 5821 5819 5817 5815 5813 5811 5810 5809 5808 5807 5806 5805
5855 5856 5858 5859 5859 5859 5859 5859 5858 5857 5857 5857 5856 5856 5853 5853 5852 5853 5852 5852 5851 5849 5848 5847 5845 5843 5842 5839 5837 5834 5831 5829 5826 5823 5821 5818 5816 5814 5812 5810 5808 5807 5805 5804 5803 5801 5800 5800 5798
5853 5854 5855 5856 5857 5857 5856 5856 5855 5855 5853 5853 5853 5853 5851 5849 5847 5848 5848 5847 5846 5845 5843 5842 5840 5839 5837 5834 5831 5829 5826 5823 5820 5817 5814 5812 5810 5808 5805 5803 5801 5800 5798 5797 5796 5794 5793 5793 5792
5852 5851 5852 5854 5855 5855 5855 5853 5852 5850 5849 5850 5849 5848 5847 5846 5844 5843 5843 5842 5841 5840 5838 5838 5836 5834 5831 5828 5826 5823 5820 5817 5814 5811 5809 5806 5803 5801 5799 5797 5795 5793 5791 5790 5789 5788 5787 5786 5785
5848 5849 5849 5850 5851 5851 5851 5850 5850 5847 5845 5845 5844 5843 5842 5841 5840 5838 5838 5837 5836 5835 5834 5833 5831 5828 5825 5823 5820 5817 5814 5811 5808 5805 5802 5799 5797 5794 5792 5790 5788 5786 5784 5783 5782 5781 5780 5779 5778
5845 5846 5847 5847 5848 5848 5847 5847 5845 5843 5842 5842 5840 5838 5836 5836 5835 5834 5834 5832 5831 5830 5829 5827 5825 5823 5820 5817 5814 5811 5808 5805 5801 5798 5795 5792 5790 5788 5785 5783 5781 5779 5778 5776 5775 5774 5773 5772 5771
5843 5844 5844 5845 5845 5844 5844 5843 5842 5840 5839 5838 5835 5834 5832 5833 5830 5829 5828 5828 5827 5826 5824 5822 5820 5817 5814 5812 5809 5806 5803 5799 5796 5792 5789 5786 5783 5781 5778 5776 5774 5772 5771 5770 5769 5767 5766 5765 5765
5840 5841 5843 5842 5841 5840 5840 5838 5837 5836 5835 5834 5833 5831 5830 5828 5825 5823 5823 5823 5822 5821 5819 5817 5815 5812 5809 5806 5803 5800 5797 5793 5790 5786 5783 5780 5777 5775 5772 5770 5768 5766 5764 5763 5762 5761 5760 5759 5758
5838 5839 5839 5838 5837 5837 5837 5835 5833 5831 5831 5830 5829 5828 5826 5824 5822 5820 5818 5818 5817 5816 5814 5812 5809 5807 5804 5801 5798 5794 5791 5787 5784 5780 5777 5774 5771 5769 5766 5764 5762 5760 5758 5757 5755 5754 5753 5753 5752
5836 5836 5836 5835 5834 5832 5833 5831 5829 5827 5828 5826 5825 5823 5822 5820 5818 5816 5815 5813 5813 5811 5809 5807 5804 5802 5799 5796 5792 5789 5785 5782 5778 5775 5772 5769 5766 5763 5760 5758 5756 5754 5752 5751 5749 5748 5747 5746 5745
5834 5833 5832 5832 5831 5829 5827 5828 5824 5824 5823 5822 5821 5819 5818 5816 5814 5813 5811 5809 5808 5806 5804 5802 5800 5797 5794 5790 5787 5784 5780 5776 5773 5770 5766 5763 5760 5757 5755 5752 5750 5748 5746 5745 5743 5742 5740 5739 5739
5829 5829 5829 5828 5827 5826 5824 5824 5820 5819 5818 5818 5816 5815 5814 5812 5810 5809 5807 5805 5803 5801 5799 5797 5795 5792 5788 5785 5782 5778 5775 5771 5767 5764 5760 5757 5754 5752 5749 5747 5744 5742 5740 5739 5737 5736 5734 5733 5732